Terminal Aerodrome Forecast
Issued by NWS

Home | Current Version | Previous Version | Text Only | Print | Product List | Glossary Off
Versions: 1 2 3 4 5 6 7 8 9 10 11 12 13 14 15 16 17

000
FTUS43 KTOP 130535
TAFMHK
TAF
KMHK 130535Z 1306/1406 23007KT P6SM SKC WS015/32045KT
     FM131400 28013KT P6SM FEW250
     FM131700 33020G29KT P6SM SKC
     FM132300 33011KT P6SM SKC=

USA.gov is the U.S. government's official web portal to all federal, state and local government web resources and services.